NSS-12

Last updated on Sun Jun 21 2026 00:03:04 GMT+0000 (Coordinated Universal Time)

1 36032U 09058A 26171.40333720 .00000067 00000+0 00000+0 0 9996 2 36032 0.0895 275.1676 0005078 143.7680 51.8750 1.00273043 60957
UTC large
Height (km)
Speed (km/s)
/
Latitude / Longitude
Inclination (degrees)
Orbital Period (minutes)
Azimuth
Elevation
Range (km)
Doppler Factor

Next 0 passes for location: London (51.5072 / 0.1276)

No passes found over London.
NSS-12